Weather in Castelo Branco

Portugal     39°49′19″N   7°29′15″W
temp.,
°C
wind,
m/s
gust,
m/s
humid.,
%
clouds,
%
prec.,
mm/h
press.,
hPa
HPBL,
m
11 may, tue
tue1101:00+7wsw23893 0.0 101966
04:00+7wsw229058 0.0 102035
07:00+7sw22925 0.0 102153
10:00+14w365599 0.0 10221649
13:00+16wsw5653100 0.1 10221935
16:00+18w46398 0.1 10202094
19:00+17w464825 0.1 10201539
22:00+13w49688 0.0 1022581
12 may, wed
wed1201:00+11sw3107996 0.0 1021605
04:00+11sw4118692 0.4 1020692
07:00+11sw31194100 1.1 1019730
10:00+16wnw485942 0.0 10201397
13:00+19wnw6844100 0.0 10192044
16:00+20nw684168 0.0 10192095
19:00+18wnw57493 0.0 10201708
22:00+12wnw37777 0.0 1022193
13 may, thu
thu1301:00+10w239041 0.0 102164
04:00+9wsw23933 0.0 102061
07:00+10sw238911 0.0 102093
10:00+16w3558100 0.0 10191043
13:00+20w685468 0.0 10181401
16:00+16wsw51069100 0.0 10171031
19:00+16wsw498399 0.0 10161006
22:00+12w2489100 0.1 101798
14 may, fri
fri1401:00+12w368597 0.1 1017290
04:00+11w26839 0.0 1017151
07:00+10nnw118970 0.0 101825
10:00+17n125486 0.0 1018884
13:00+23nw1233100 0.0 10171510
16:00+24nw4526100 0.0 10161835
19:00+19wnw4740100 0.0 1017505
22:00+14w2356100 0.0 1019101
15 may, sat
sat1501:00+12wnw1160100 0.0 101814
04:00+12wnw1160100 0.0 101810
07:00+12w116591 0.0 101813
10:00+19w1350100 0.0 1019490
13:00+25wnw3538100 0.0 10181423
16:00+27wnw45385 0.0 10161788
19:00+25nw46485 0.0 1016846
22:00+18w3772100 0.0 1018148